Change the Weather History Date:

Thursday, April 24, 2014

  Actual Average Record
Temperature  
Mean Temperature 49 °F 48 °F  
Max Temperature 66 °F 61 °F 89 °F (1962)
Min Temperature 32 °F 35 °F 22 °F (2013)
Degree Days  
Heating Degree Days 16 17  
Month to date heating degree days 517 505  
Since 1 July heating degree days 7167 6633  
Cooling Degree Days 0 0  
Month to date cooling degree days 0 0  
Year to date cooling degree days 0 0  
Moisture  
Dew Point 25 °F    
Average Humidity 43    
Maximum Humidity 64    
Minimum Humidity 22    
Precipitation  
Precipitation 0.00 in 0.07 in 0.48 in (2000)
Month to date precipitation 0.54 1.29  
Year to date precipitation 2.12 2.96  
Snow  
Snow 0.00 in 0.20 in - ()
Month to date snowfall 6.0 6.8  
Since 1 July snowfall 63.4 38.9  
Snow Depth 0.00 in    
Sea Level Pressure  
Sea Level Pressure 29.83 in    
Wind  
Wind Speed 8 mph (North)    
Max Wind Speed 18 mph    
Max Gust Speed 26 mph    
Visibility 10 miles    
Events      
T = Trace of Precipitation, MM = Missing Value Source: NWS Daily Summary

Daily Weather History Graph

Daily Weather History Graph

Search for Another Location

Airport or City:

Trip Planner

Search our weather history database for the weather conditions in past years. The results will help you decide how hot, cold, wet, or windy it might be!

Date:

Astronomy

Apr. 24, 2014 Rise Set
Actual Time 5:54 AM MDT 7:47 PM MDT
Civil Twilight 5:23 AM MDT 8:18 PM MDT
Nautical Twilight 4:45 AM MDT 8:56 PM MDT
Astronomical Twilight 4:04 AM MDT 9:37 PM MDT
Moon 3:17 AM MDT (4/24) 2:55 PM MDT (4/24)
Length of Visible Light 14h 55m
Length of Day
13h 53m
Waning Crescent, 24% of the Moon is Illuminated
Apr 24
Waning Crescent
Apr 29
New
May 6
First Quarter
May 14
Full
May 21
Last Quarter

Hourly Weather History & Observations

Time (MDT) Temp. Windchill Dew Point Humidity Pressure Visibility Wind Dir Wind Speed Gust Speed Precip Events Conditions
12:52 AM 37.0 °F 32.4 °F 26.1 °F 65% 29.84 in 10.0 mi WNW 5.8 mph - N/A   Clear
1:52 AM 37.0 °F 29.8 °F 24.1 °F 59% 29.85 in 10.0 mi WNW 10.4 mph - N/A   Clear
2:52 AM 34.0 °F 26.0 °F 23.0 °F 64% 29.88 in 10.0 mi WNW 10.4 mph - N/A   Clear
3:52 AM 36.0 °F 28.0 °F 21.9 °F 57% 29.87 in 10.0 mi WNW 11.5 mph - N/A   Clear
4:52 AM 34.0 °F 26.6 °F 19.9 °F 56% 29.87 in 10.0 mi WNW 9.2 mph - N/A   Clear
5:52 AM 33.1 °F 25.5 °F 19.0 °F 56% 29.88 in 10.0 mi WNW 9.2 mph - N/A   Clear
6:52 AM 39.9 °F 35.1 °F 21.9 °F 49% 29.87 in 10.0 mi WNW 6.9 mph - N/A   Clear
7:52 AM 48.0 °F - 21.9 °F 36% 29.87 in 10.0 mi NW 6.9 mph - N/A   Clear
8:52 AM 54.0 °F - 21.0 °F 28% 29.86 in 10.0 mi WNW 4.6 mph - N/A   Clear
9:52 AM 57.0 °F - 21.9 °F 26% 29.85 in 10.0 mi North 12.7 mph 20.7 mph N/A   Clear
10:52 AM 55.9 °F - 24.1 °F 29% 29.86 in 10.0 mi North 8.1 mph 20.7 mph N/A   Clear
11:52 AM 57.0 °F - 28.0 °F 33% 29.86 in 10.0 mi North 12.7 mph - N/A   Clear
12:52 PM 59.0 °F - 28.0 °F 31% 29.84 in 10.0 mi NE 9.2 mph 17.3 mph N/A   Clear
1:52 PM 61.0 °F - 28.0 °F 29% 29.81 in 10.0 mi NE 9.2 mph - N/A   Scattered Clouds
2:52 PM 62.1 °F - 25.0 °F 24% 29.79 in 10.0 mi Calm Calm - N/A   Clear
3:52 PM 64.9 °F - 25.0 °F 22% 29.76 in 10.0 mi NNE 11.5 mph - N/A   Clear
4:02 PM 62.1 °F - 27.0 °F 26% 29.76 in 10.0 mi NE 13.8 mph - N/A   Clear
4:52 PM 63.0 °F - 27.0 °F 26% 29.77 in 10.0 mi NNE 10.4 mph - N/A   Clear
5:52 PM 57.9 °F - 28.9 °F 33% 29.79 in 10.0 mi NE 5.8 mph - N/A   Mostly Cloudy
6:52 PM 55.0 °F - 30.9 °F 40% 29.79 in 10.0 mi NE 5.8 mph - N/A   Mostly Cloudy
7:52 PM 50.0 °F - 32.0 °F 50% 29.78 in 10.0 mi ENE 8.1 mph - N/A   Partly Cloudy
8:52 PM 45.0 °F 41.2 °F 28.9 °F 53% 29.79 in 10.0 mi NE 6.9 mph - N/A   Clear
9:52 PM 46.0 °F 44.8 °F 28.0 °F 50% 29.80 in 10.0 mi North 3.5 mph - N/A   Mostly Cloudy
10:52 PM 44.1 °F 41.5 °F 28.0 °F 53% 29.81 in 10.0 mi NNE 4.6 mph - N/A   Partly Cloudy
11:52 PM 41.0 °F 38.0 °F 28.0 °F 60% 29.83 in 10.0 mi NW 4.6 mph - N/A   Clear